Powrót do katalogu

ECHOSTAR 1 PKM

AktywnyHEO
NORAD 23756·ROCKET BODY·🇨🇳 China

Wystrzelony Dec 28, 1995 z Xichang Satellite Launch Center

Loading…

Następne Przeloty (najbliższe 24 godziny)

TLE

ŚwieżeSource: Space-Track

Epoka: Sep 14, 2026, 07:07 UTC

1 23756U 95073C   26257.29693059  .00018629  00000-0  68885-3 0  9996
2 23756  24.2740   9.9466 5535535 323.5476   9.2065  4.83764269365879

Śledź ECHOSTAR 1 PKM w czasie rzeczywistym z AllMySat

Download on the App Store